[[{"header":{"parameterUnit":"m.s-1","parameterCategory":1,"la1":30.2991,"la2":30.254,"lo1":-89.0895,"lo2":-89.0444,"dy":0.0017,"dx":0.0017,"nx":28,"ny":28,"refTime":"2024-06-23T21:00:00:Z","depth":0,"parameterNumber":2,"parameterNumberName":"U-component_of_WINDS"},"data":[0,0,0,0,0,0,0,0,0,0,0,0,0,0,0,0,0,0,0,0,0,0,0,0,0,0,0,0,0,0,0,0,0,0,0,0,0,0,0,0,0,0,0,0,0,0,0,0,0,0,0,0,0,0,0,0,0,0,0.5274,0.5275,0,0.5373,0.5374,0.5376,0.5408,0.5407,0.5407,0.5407,0.5512,0.5515,0.5518,0,0,0,0,0,0,0,0,0,0,0,0,0,0.5114,0.5117,0.5274,0.5275,0.5276,0.5373,0.5375,0.5376,0.5408,0.5407,0.5407,0.5406,0.5511,0.5514,0.5518,0,0,0,0,0,0,0,0,0,0,0,0,0,0.5196,0.5118,0.5274,0.5304,0.5308,0.5373,0.5375,0.5376,0.5408,0.5407,0.5407,0.5406,0.5509,0.5514,0.5519,0.5562,0,0,0.5534,0.5536,0,0,0,0,0,0,0,0,0.5191,0.5201,0.5298,0.5302,0.5306,0.5377,0.5357,0.5439,0.5408,0.537,0.5406,0.5406,0.5468,0.5476,0.5496,0.5567,0.5572,0.5534,0.5537,0.5539,0.554,0,0,0,0,0,0,0,0.5185,0.5197,0.5313,0.53,0.5304,0.5313,0.5324,0.5373,0.5422,0.5373,0.5376,0.5387,0.547,0.5492,0.5499,0.5573,0.5534,0.5538,0.5541,0.5543,0.5684,0.5685,0,0,0,0,0,0,0.5174,0.5192,0.531,0.5316,0.5246,0.5317,0.5329,0.5355,0.5421,0.543,0.5387,0.5388,0.5484,0.5493,0.5503,0.5558,0.5539,0.5544,0.5546,0.5684,0.5685,0.5686,0,0,0,0,0,0,0.5171,0.5184,0.5306,0.5255,0.5271,0.532,0.535,0.5358,0.5379,0.5432,0.5441,0.54,0.5483,0.5496,0.5547,0.5562,0.5546,0.555,0.5683,0.5684,0.5685,0.5668,0,0,0,0,0,0,0.5166,0.5183,0.5199,0.5255,0.5274,0.5348,0.5351,0.536,0.5387,0.5389,0.5446,0.5455,0.5484,0.5539,0.5552,0.5568,0.5554,0.5682,0.5683,0.5685,0.5667,0.5668,0.5669,0,0,0,0,0,0.516,0.5191,0.52,0.5214,0.5295,0.5348,0.5359,0.5391,0.5388,0.5405,0.5439,0.5453,0.5558,0.5544,0.5558,0.5576,0.5681,0.5683,0.5685,0.5667,0.5668,0.5669,0,0,0,0,0,0,0.5137,0.5199,0.5209,0.5259,0.5298,0.5354,0.5376,0.5391,0.5432,0.5432,0.547,0.5483,0.5531,0.5559,0.5543,0.5622,0.562,0.5625,0.5602,0.5603,0.5604,0.5597,0.5558,0,0,0,0,0,0.5137,0.5174,0.5227,0.5266,0.5285,0.5327,0.5352,0.5372,0.5415,0.5431,0.5469,0.551,0.5552,0.558,0.5621,0.5671,0.5684,0.5691,0.5691,0.5692,0.5696,0.5724,0.5727,0.5692,0.5692,0.5692,0,0,0.5139,0.5178,0.5199,0.5263,0.5295,0.5333,0.5341,0.5381,0.541,0.5438,0.5488,0.5517,0.5565,0.5616,0.564,0.5641,0.5708,0.5694,0.5694,0.5698,0.5726,0.573,0.5732,0.5693,0.5693,0.5693,0,0,0.5162,0.5195,0.5231,0.5263,0.5311,0.5339,0.5348,0.5401,0.5421,0.5471,0.5493,0.5528,0.56,0.5634,0.566,0.5695,0.5709,0.5707,0.5712,0.5739,0.5742,0.5745,0.5757,0.5761,0.5711,0.5711,0.5711,0,0.5159,0.5216,0.5248,0.5287,0.5314,0.5339,0.5376,0.5406,0.5467,0.5485,0.5485,0.5575,0.5609,0.5668,0.5676,0.5697,0.5708,0.5701,0.5739,0.5742,0.5745,0.5757,0.5761,0.571,0.571,0.571,0.571,0,0.5209,0.5249,0.5272,0.5328,0.5358,0.5396,0.5434,0.5461,0.5478,0.5506,0.5557,0.56,0.565,0.5665,0.5684,0.5726,0.5725,0.5731,0.5731,0.5747,0.5759,0.5764,0.5709,0.571,0.571,0.571,0,0,0.5221,0.5293,0.5301,0.5326,0.5382,0.5413,0.5452,0.5501,0.5523,0.5563,0.5597,0.5657,0.5663,0.5693,0.5715,0.5739,0.5763,0.5742,0.5744,0.5744,0.5812,0.5807,0.5812,0.5773,0.5774,0.5775,0.5808,0,0.5251,0.532,0.5349,0.5406,0.5443,0.5467,0.5501,0.5539,0.5566,0.5602,0.5633,0.5674,0.5679,0.5697,0.5721,0.5755,0.5777,0.5753,0.5805,0.5807,0.5792,0.5818,0.5813,0.5842,0.5813,0.5814,0.5814,0,0.5295,0.5334,0.5394,0.5444,0.546,0.549,0.5536,0.557,0.5614,0.5632,0.5665,0.5686,0.5728,0.5724,0.5783,0.5766,0.5789,0.5809,0.5811,0.5817,0.5811,0.5825,0.5852,0.5856,0.5822,0.5821,0.5821,0,0.5297,0.5365,0.5409,0.543,0.549,0.551,0.5536,0.5579,0.5606,0.5647,0.5664,0.571,0.5735,0.577,0.5803,0.5797,0.5859,0.5857,0.5875,0.5874,0.5887,0.5886,0.5919,0.5902,0.5902,0.5902,0.5902,0,0.5327,0.5362,0.5411,0.5438,0.5478,0.5512,0.5551,0.5579,0.5617,0.5651,0.5675,0.5706,0.5748,0.5784,0.581,0.5855,0.5866,0.5882,0.5889,0.588,0.5878,0.5896,0.5895,0.5903,0.5903,0.5903,0.5902,0,0.5336,0.537,0.542,0.5472,0.5485,0.5513,0.5558,0.5586,0.5613,0.5656,0.5667,0.5711,0.5756,0.5792,0.585,0.5868,0.5914,0.5922,0.5899,0.5903,0.5918,0.5916,0.5963,0.5971,0.5949,0.5949,0.595,0,0.5353,0.538,0.5435,0.5459,0.5484,0.5522,0.5549,0.5583,0.5611,0.5662,0.5683,0.5729,0.5767,0.5837,0.5875,0.5919,0.5928,0.5942,0.5935,0.5925,0.5928,0.5926,0.5929,0.5942,0.5942,0.5942,0.5942,0,0.5379,0.5394,0.5432,0.5475,0.5507,0.5543,0.558,0.5598,0.5639,0.5668,0.5713,0.5743,0.5801,0.5847,0.5895,0.5923,0.594,0.5944,0.5951,0.5942,0.5927,0.5935,0.5901,0.5943,0.5943,0.5943,0.5943,0.5943,0.5393,0.5418,0.546,0.5501,0.5532,0.5566,0.5594,0.5625,0.5663,0.5712,0.573,0.5776,0.5819,0.5886,0.5913,0.595,0.5952,0.5961,0.5964,0.5966,0.5964,0.5921,0.5959,0.5959,0.5959,0.5959,0.5959,0,0.542,0.5448,0.5485,0.5535,0.5568,0.5579,0.5621,0.5647,0.5687,0.5725,0.5761,0.5813,0.5857,0.5897,0.5943,0.5965,0.5973,0.5975,0.5974,0.598,0.596,0.595,0.5967,0.5967,0.5967,0.5967,0.5967,0.5967,0.5438,0.5481,0.5501,0.5561,0.5589,0.5633,0.5656,0.5687,0.5717,0.5773,0.5809,0.5835,0.5874,0.5923,0.5963,0.5974,0.599,0.599,0.6003,0.5983,0.5982,0.5981,0.5971,0.5993,0.5993,0.602,0.602,0.602]},{"header":{"parameterUnit":"m.s-1","parameterCategory":1,"la1":30.2991,"la2":30.254,"lo1":-89.0895,"lo2":-89.0444,"dy":0.0017,"dx":0.0017,"nx":28,"ny":28,"refTime":"2024-06-23T21:00:00:Z","depth":0,"parameterNumber":3,"parameterNumberName":"V-component_of_WINDS"},"data":[0,0,0,0,0,0,0,0,0,0,0,0,0,0,0,0,0,0,0,0,0,0,0,0,0,0,0,0,0,0,0,0,0,0,0,0,0,0,0,0,0,0,0,0,0,0,0,0,0,0,0,0,0,0,0,0,0,0,2.8497,2.8497,0,2.8508,2.8508,2.8508,2.8546,2.8547,2.8548,2.8549,2.8557,2.8556,2.8555,0,0,0,0,0,0,0,0,0,0,0,0,0,2.8506,2.8505,2.8497,2.8497,2.8497,2.8508,2.8508,2.8508,2.8546,2.8547,2.8548,2.8549,2.8557,2.8556,2.8555,0,0,0,0,0,0,0,0,0,0,0,0,0,2.8508,2.8505,2.8497,2.8517,2.8519,2.8508,2.8508,2.8508,2.8546,2.8547,2.8548,2.8549,2.8557,2.8556,2.8555,2.8523,0,0,2.8552,2.8552,0,0,0,0,0,0,0,0,2.8508,2.8507,2.8514,2.8516,2.8518,2.8527,2.8514,2.8513,2.8545,2.8536,2.8549,2.855,2.8545,2.8546,2.8545,2.8524,2.8524,2.8552,2.8552,2.8551,2.8551,0,0,0,0,0,0,0,2.8507,2.8507,2.8501,2.8514,2.8517,2.8525,2.8527,2.8514,2.8533,2.8536,2.8539,2.854,2.8547,2.8545,2.8545,2.8524,2.8552,2.8552,2.8551,2.8551,2.8475,2.8474,0,0,0,0,0,0,2.8505,2.8507,2.8501,2.8501,2.8516,2.8524,2.8526,2.8523,2.8533,2.8536,2.8539,2.8542,2.8546,2.8546,2.8545,2.8507,2.8551,2.8551,2.855,2.8477,2.8475,2.8474,0,0,0,0,0,0,2.8505,2.8504,2.85,2.8505,2.8505,2.8522,2.8519,2.8522,2.8521,2.8535,2.8538,2.8534,2.8547,2.8547,2.8528,2.8508,2.855,2.8549,2.8479,2.8476,2.8474,2.8431,0,0,0,0,0,0,2.8505,2.8504,2.8493,2.8504,2.8505,2.8484,2.8517,2.8521,2.852,2.8523,2.8532,2.8534,2.8548,2.8529,2.8527,2.8507,2.8549,2.8481,2.8478,2.8475,2.8434,2.8428,2.8422,0,0,0,0,0,2.8505,2.848,2.8492,2.8491,2.8491,2.8483,2.8483,2.85,2.8518,2.8506,2.8515,2.8534,2.8511,2.8527,2.8525,2.8505,2.8482,2.8478,2.8475,2.8437,2.8429,2.8422,0,0,0,0,0,0,2.8464,2.8482,2.8495,2.8473,2.8476,2.8489,2.8475,2.8491,2.8489,2.8492,2.8513,2.8515,2.8493,2.8497,2.8515,2.8473,2.8499,2.8496,2.8471,2.8463,2.8457,2.8456,2.8548,0,0,0,0,0,2.8453,2.8446,2.8461,2.844,2.8441,2.8458,2.8454,2.8468,2.8471,2.8472,2.848,2.8482,2.8475,2.847,2.8464,2.8436,2.8437,2.842,2.8414,2.8409,2.8405,2.8387,2.838,2.8463,2.8463,2.8463,0,0,2.8429,2.8438,2.8432,2.8432,2.8436,2.8426,2.8458,2.8447,2.844,2.847,2.8453,2.8459,2.8462,2.8438,2.8427,2.8441,2.8382,2.8405,2.8401,2.8399,2.8383,2.8375,2.8368,2.8461,2.8461,2.8461,0,0,2.838,2.8387,2.8369,2.8373,2.8378,2.8389,2.8385,2.8395,2.84,2.8384,2.8406,2.8397,2.8385,2.8386,2.8384,2.8335,2.8351,2.8333,2.8299,2.8282,2.8276,2.827,2.825,2.8242,2.8329,2.8329,2.8329,0,2.8349,2.8337,2.8358,2.8345,2.8343,2.8372,2.8353,2.8355,2.8358,2.8355,2.8371,2.8355,2.836,2.8335,2.8322,2.8322,2.8315,2.8331,2.8275,2.8269,2.8264,2.8245,2.8238,2.8326,2.8326,2.8327,2.8327,0,2.8297,2.8288,2.8273,2.8276,2.8273,2.8257,2.8274,2.8268,2.8282,2.8291,2.8272,2.8279,2.8274,2.8269,2.8282,2.8245,2.8253,2.8272,2.8298,2.8254,2.8236,2.8229,2.8323,2.8323,2.8324,2.8325,0,0,2.8222,2.8237,2.8231,2.8231,2.8239,2.8232,2.8217,2.8213,2.8206,2.8208,2.8194,2.8183,2.8199,2.8198,2.8211,2.8196,2.8153,2.8216,2.8216,2.8202,2.811,2.8095,2.8086,2.8165,2.8164,2.8163,2.8109,0,2.8174,2.8149,2.8167,2.8139,2.8129,2.8156,2.8142,2.8145,2.8153,2.8145,2.8153,2.8144,2.8168,2.8167,2.8154,2.8161,2.8135,2.8166,2.815,2.8149,2.8146,2.8077,2.8061,2.801,2.8103,2.8101,2.8101,0,2.8114,2.8112,2.8083,2.8092,2.8088,2.8076,2.8073,2.8066,2.8069,2.8075,2.8073,2.809,2.8073,2.8101,2.8077,2.8098,2.8093,2.8095,2.8094,2.8091,2.8121,2.807,2.7994,2.7986,2.809,2.8091,2.8092,0,2.8059,2.805,2.8031,2.8031,2.8041,2.8031,2.8035,2.8039,2.8035,2.8032,2.8029,2.8024,2.8021,2.8016,2.803,2.8049,2.8003,2.8033,2.8006,2.8006,2.7994,2.7994,2.7914,2.7994,2.7995,2.7995,2.7995,0,2.8001,2.7982,2.8006,2.7994,2.7972,2.7993,2.797,2.7976,2.798,2.7968,2.7991,2.7979,2.8,2.7989,2.8,2.7978,2.7977,2.798,2.7982,2.7976,2.7975,2.7971,2.7974,2.7993,2.7993,2.7994,2.7994,0,2.7935,2.7951,2.7931,2.7943,2.7945,2.7928,2.7937,2.7926,2.7935,2.792,2.7917,2.7932,2.7921,2.7935,2.7925,2.7933,2.7901,2.791,2.79,2.7901,2.7874,2.7875,2.7786,2.7774,2.7865,2.7864,2.7863,0,2.7896,2.7882,2.7892,2.7886,2.7888,2.7879,2.7875,2.7895,2.7889,2.7891,2.7878,2.7869,2.7863,2.7844,2.7852,2.7844,2.7852,2.7821,2.7851,2.7844,2.7848,2.7848,2.7845,2.7814,2.7813,2.7812,2.7812,0,2.7825,2.7833,2.7827,2.7823,2.7818,2.7816,2.7815,2.7809,2.7829,2.7822,2.7811,2.7806,2.7796,2.7786,2.778,2.7782,2.7799,2.7803,2.7796,2.7788,2.7781,2.7782,2.7881,2.7804,2.7805,2.7805,2.7806,2.7806,2.777,2.7757,2.7762,2.7754,2.7756,2.7754,2.7743,2.7752,2.7743,2.7737,2.7749,2.7735,2.7736,2.7731,2.773,2.7718,2.7731,2.7722,2.7719,2.7716,2.771,2.7786,2.7718,2.7718,2.7718,2.7718,2.7719,0,2.7697,2.7702,2.7694,2.7692,2.7685,2.7704,2.7704,2.7696,2.7684,2.7685,2.7678,2.7664,2.7655,2.7662,2.7654,2.7642,2.7649,2.7639,2.7639,2.7638,2.77,2.7706,2.7633,2.7633,2.7633,2.7633,2.7633,2.7633,2.7658,2.7638,2.7646,2.7626,2.763,2.7617,2.7615,2.7613,2.7614,2.7598,2.759,2.7596,2.7598,2.759,2.7581,2.7583,2.7578,2.7564,2.7568,2.7626,2.7634,2.7642,2.7647,2.7563,2.7563,2.7507,2.7506,2.7506]}]]